| time (UTC) | temp C | wind direction | speed KPH | gust KPH | rain 1hr cm | rain 24hr cm | rain mn cm | humidity % | barometer mb |
| 20260902003058 | 14 | 58 | 0.0 | 0.0 | 0.00 | 0.18 | 0.18 | 95 | 1017.6 |
| 20260902002536 | 14 | 58 | 0.0 | 1.6 | 0.00 | 0.18 | 0.18 | 94 | 1017.4 |
| 20260902002005 | 14 | 58 | 0.0 | 1.6 | 0.00 | 0.18 | 0.18 | 94 | 1017.5 |
| 20260902001440 | 14 | 58 | 0.0 | 0.0 | 0.00 | 0.18 | 0.18 | 93 | 1017.5 |
| 20260902001211 | 14 | 58 | 0.0 | 0.0 | 0.00 | 0.18 | 0.18 | 93 | 1017.4 |
| 20260902000414 | 15 | 58 | 0.0 | 0.0 | 0.00 | 0.18 | 0.18 | 93 | 1017.3 |
| 20260901235905 | 15 | 58 | 0.0 | 0.0 | 0.00 | 0.18 | 0.18 | 93 | 1017.4 |
| 20260901235402 | 15 | 58 | 0.0 | 0.0 | 0.00 | 0.18 | 0.18 | 93 | 1017.3 |
| 20260901234856 | 15 | 58 | 0.0 | 0.0 | 0.00 | 0.18 | 0.18 | 93 | 1017.2 |
| 20260901234352 | 15 | 58 | 0.0 | 0.0 | 0.00 | 0.18 | 0.18 | 94 | 1017.3 |
| 20260901233827 | 15 | 58 | 0.0 | 0.0 | 0.00 | 0.18 | 0.18 | 93 | 1017.1 |
| 20260901233302 | 15 | 58 | 0.0 | 0.0 | 0.00 | 0.18 | 0.18 | 92 | 1016.9 |
| 20260901233028 | 15 | 58 | 0.0 | 0.0 | 0.00 | 0.18 | 0.18 | 91 | 1016.9 |
| 20260901232526 | 16 | 95 | 0.0 | 0.0 | 0.00 | 0.18 | 0.18 | 91 | 1016.7 |
| 20260901231732 | 16 | 95 | 0.0 | 0.0 | 0.00 | 0.18 | 0.18 | 90 | 1016.7 |
| 20260901231203 | 16 | 95 | 0.0 | 0.0 | 0.00 | 0.18 | 0.18 | 90 | 1016.7 |
| 20260901230929 | 16 | 95 | 0.0 | 0.0 | 0.00 | 0.18 | 0.18 | 90 | 1016.7 |
| 20260901230156 | 16 | 95 | 0.0 | 0.0 | 0.00 | 0.18 | 0.18 | 90 | 1016.6 |
| 20260901225653 | 16 | 95 | 0.0 | 0.0 | 0.00 | 0.18 | 0.18 | 89 | 1016.5 |
| 20260901225148 | 16 | 95 | 0.0 | 0.0 | 0.00 | 0.18 | 0.18 | 90 | 1016.4 |
| 20260901224855 | 17 | 95 | 0.0 | 0.0 | 0.00 | 0.18 | 0.18 | 90 | 1016.3 |
| 20260901224109 | 17 | 95 | 0.0 | 0.0 | 0.00 | 0.18 | 0.18 | 89 | 1016.3 |
| 20260901223610 | 17 | 95 | 0.0 | 0.0 | 0.00 | 0.18 | 0.18 | 89 | 1016.3 |
| 20260901223044 | 17 | 95 | 0.0 | 1.6 | 0.00 | 0.18 | 0.18 | 88 | 1016.1 |
| 20260901222520 | 17 | 95 | 1.6 | 3.2 | 0.00 | 0.18 | 0.18 | 88 | 1016.1 |
| 20260901221948 | 17 | 95 | 3.2 | 4.8 | 0.00 | 0.18 | 0.18 | 88 | 1016.0 |
| 20260901221424 | 17 | 105 | 1.6 | 4.8 | 0.00 | 0.18 | 0.18 | 88 | 1016.0 |
| 20260901220856 | 17 | 115 | 1.6 | 4.8 | 0.00 | 0.18 | 0.18 | 87 | 1016.0 |
| 20260901220349 | 17 | 111 | 0.0 | 4.8 | 0.00 | 0.18 | 0.18 | 87 | 1015.9 |
| 20260901215823 | 18 | 128 | 0.0 | 1.6 | 0.00 | 0.18 | 0.18 | 86 | 1015.9 |
| 20260901215257 | 18 | 128 | 0.0 | 1.6 | 0.00 | 0.18 | 0.18 | 85 | 1015.9 |
| 20260901214736 | 18 | 128 | 0.0 | 1.6 | 0.00 | 0.18 | 0.18 | 85 | 1015.8 |
| 20260901214210 | 18 | 128 | 0.0 | 4.8 | 0.00 | 0.18 | 0.18 | 84 | 1015.8 |
| 20260901213647 | 18 | 128 | 0.0 | 4.8 | 0.00 | 0.18 | 0.18 | 84 | 1015.8 |
| 20260901213147 | 18 | 85 | 1.6 | 4.8 | 0.00 | 0.18 | 0.18 | 83 | 1015.7 |
| 20260901212917 | 18 | 161 | 0.0 | 4.8 | 0.00 | 0.18 | 0.18 | 83 | 1015.5 |
| 20260901212146 | 18 | 168 | 0.0 | 1.6 | 0.00 | 0.18 | 0.18 | 81 | 1015.5 |
| 20260901211646 | 19 | 168 | 0.0 | 3.2 | 0.00 | 0.18 | 0.18 | 80 | 1015.5 |
| 20260901211146 | 19 | 168 | 0.0 | 3.2 | 0.00 | 0.18 | 0.18 | 80 | 1015.4 |
| 20260901210916 | 19 | 135 | 1.6 | 4.8 | 0.00 | 0.18 | 0.18 | 80 | 1015.2 |
| 20260901210142 | 19 | 145 | 0.0 | 4.8 | 0.00 | 0.18 | 0.18 | 79 | 1015.2 |
| 20260901205636 | 20 | 172 | 1.6 | 8.0 | 0.00 | 0.18 | 0.18 | 78 | 1015.2 |
| 20260901205127 | 20 | 219 | 1.6 | 14.5 | 0.00 | 0.18 | 0.18 | 77 | 1015.1 |
| 20260901204844 | 20 | 131 | 1.6 | 14.5 | 0.00 | 0.18 | 0.18 | 77 | 1015.2 |
| 20260901204112 | 20 | 137 | 1.6 | 4.8 | 0.00 | 0.18 | 0.18 | 77 | 1015.1 |
| 20260901203842 | 20 | 128 | 3.2 | 11.3 | 0.00 | 0.18 | 0.18 | 76 | 1015.0 |
| 20260901203045 | 20 | 231 | 3.2 | 11.3 | 0.00 | 0.18 | 0.18 | 76 | 1014.9 |
| 20260901202810 | 20 | 164 | 4.8 | 11.3 | 0.00 | 0.18 | 0.18 | 76 | 1014.9 |
| 20260901202032 | 20 | 116 | 3.2 | 12.9 | 0.00 | 0.18 | 0.18 | 77 | 1014.8 |
| 20260901201802 | 20 | 109 | 3.2 | 12.9 | 0.00 | 0.18 | 0.18 | 79 | 1014.8 |
| 20260901201019 | 20 | 267 | 3.2 | 9.7 | 0.00 | 0.18 | 0.18 | 79 | 1014.6 |
| 20260901200518 | 20 | 115 | 3.2 | 9.7 | 0.00 | 0.18 | 0.18 | 77 | 1014.6 |
| 20260901200016 | 20 | 126 | 3.2 | 16.1 | 0.00 | 0.18 | 0.18 | 77 | 1014.6 |
| 20260901195514 | 20 | 261 | 4.8 | 16.1 | 0.00 | 0.18 | 0.18 | 77 | 1014.5 |
| 20260901195008 | 21 | 142 | 3.2 | 11.3 | 0.00 | 0.18 | 0.18 | 77 | 1014.3 |
| 20260901194501 | 21 | 104 | 4.8 | 12.9 | 0.00 | 0.18 | 0.18 | 76 | 1014.2 |
| 20260901193935 | 21 | 110 | 6.4 | 14.5 | 0.00 | 0.18 | 0.18 | 75 | 1014.2 |
| 20260901193406 | 21 | 137 | 6.4 | 16.1 | 0.00 | 0.18 | 0.18 | 74 | 1014.0 |
| 20260901192900 | 21 | 100 | 4.8 | 16.1 | 0.00 | 0.18 | 0.18 | 74 | 1014.0 |
| 20260901192356 | 22 | 99 | 4.8 | 12.9 | 0.00 | 0.18 | 0.18 | 74 | 1013.9 |
| 20260901191853 | 22 | 163 | 3.2 | 9.7 | 0.00 | 0.18 | 0.18 | 73 | 1014.0 |
| 20260901191353 | 22 | 68 | 3.2 | 12.9 | 0.00 | 0.18 | 0.18 | 72 | 1013.9 |
| 20260901190854 | 22 | 249 | 3.2 | 12.9 | 0.00 | 0.18 | 0.18 | 71 | 1013.8 |
| 20260901190328 | 22 | 182 | 4.8 | 12.9 | 0.00 | 0.18 | 0.18 | 69 | 1013.9 |
| 20260901185810 | 22 | 117 | 4.8 | 12.9 | 0.00 | 0.18 | 0.18 | 71 | 1013.7 |
| 20260901185538 | 22 | 276 | 3.2 | 12.9 | 0.00 | 0.18 | 0.18 | 70 | 1013.7 |
| 20260901185418 | 22 | 205 | 4.8 | 12.9 | 0.00 | 0.18 | 0.18 | 70 | 1013.6 |
| 20260901184238 | 22 | 200 | 4.8 | 12.9 | 0.00 | 0.18 | 0.18 | 70 | 1013.5 |
| 20260901183730 | 22 | 258 | 4.8 | 14.5 | 0.00 | 0.18 | 0.18 | 70 | 1013.4 |
| 20260901183203 | 22 | 177 | 6.4 | 17.7 | 0.00 | 0.18 | 0.18 | 71 | 1013.5 |
| 20260901182653 | 22 | 251 | 8.0 | 17.7 | 0.00 | 0.18 | 0.18 | 71 | 1013.5 |
| 20260901182154 | 22 | 247 | 6.4 | 17.7 | 0.00 | 0.20 | 0.18 | 70 | 1013.4 |
| 20260901181649 | 22 | 111 | 4.8 | 17.7 | 0.00 | 0.20 | 0.18 | 69 | 1013.5 |
| 20260901181123 | 23 | 282 | 3.2 | 17.7 | 0.00 | 0.20 | 0.18 | 73 | 1013.4 |
| 20260901180556 | 22 | 270 | 4.8 | 14.5 | 0.00 | 0.20 | 0.18 | 73 | 1013.4 |
| 20260901180030 | 22 | 268 | 6.4 | 14.5 | 0.00 | 0.20 | 0.18 | 72 | 1013.3 |
| 20260901175528 | 22 | 187 | 6.4 | 12.9 | 0.00 | 0.20 | 0.18 | 75 | 1013.4 |
| 20260901175024 | 22 | 217 | 6.4 | 14.5 | 0.00 | 0.20 | 0.18 | 73 | 1013.4 |
| 20260901174754 | 22 | 243 | 6.4 | 14.5 | 0.00 | 0.20 | 0.18 | 72 | 1013.6 |
| 20260901173501 | 22 | 141 | 3.2 | 12.9 | 0.00 | 0.23 | 0.18 | 75 | 1013.5 |
| 20260901173002 | 21 | 195 | 3.2 | 8.0 | 0.00 | 0.23 | 0.18 | 77 | 1013.4 |
| 20260901172441 | 21 | 193 | 3.2 | 12.9 | 0.00 | 0.23 | 0.18 | 80 | 1013.4 |
| 20260901172434 | 21 | 247 | 3.2 | 11.3 | 0.00 | 0.23 | 0.18 | 76 | 1013.4 |
| 20260901171403 | 21 | 250 | 3.2 | 12.9 | 0.00 | 0.23 | 0.18 | 79 | 1013.4 |
| 20260901170846 | 21 | 274 | 3.2 | 11.3 | 0.00 | 0.23 | 0.18 | 80 | 1013.4 |
| 20260901170321 | 21 | 289 | 3.2 | 11.3 | 0.00 | 0.23 | 0.18 | 81 | 1013.6 |
| 20260901165821 | 21 | 220 | 3.2 | 11.3 | 0.00 | 0.23 | 0.18 | 85 | 1013.6 |
| 20260901165322 | 21 | 182 | 3.2 | 11.3 | 0.00 | 0.23 | 0.18 | 83 | 1013.6 |
| 20260901165051 | 21 | 249 | 3.2 | 9.7 | 0.00 | 0.23 | 0.18 | 84 | 1013.7 |
| 20260901164549 | 20 | 260 | 4.8 | 9.7 | 0.00 | 0.23 | 0.18 | 86 | 1013.7 |
| 20260901163818 | 20 | 252 | 3.2 | 11.3 | 0.00 | 0.25 | 0.18 | 86 | 1013.7 |
| 20260901163317 | 20 | 265 | 3.2 | 11.3 | 0.00 | 0.25 | 0.18 | 89 | 1013.7 |
| 20260901162810 | 20 | 270 | 3.2 | 9.7 | 0.00 | 0.25 | 0.18 | 88 | 1013.8 |
| 20260901162308 | 20 | 297 | 1.6 | 4.8 | 0.00 | 0.25 | 0.18 | 89 | 1013.8 |
| 20260901161800 | 19 | 218 | 1.6 | 4.8 | 0.00 | 0.25 | 0.18 | 89 | 1013.8 |
| 20260901161258 | 19 | 251 | 1.6 | 6.4 | 0.00 | 0.25 | 0.18 | 90 | 1013.8 |
| 20260901160727 | 19 | 182 | 1.6 | 6.4 | 0.00 | 0.25 | 0.18 | 90 | 1013.8 |
| 20260901160209 | 18 | 252 | 1.6 | 4.8 | 0.00 | 0.25 | 0.18 | 90 | 1013.9 |
| 20260901155937 | 18 | 237 | 1.6 | 4.8 | 0.00 | 0.25 | 0.18 | 89 | 1013.9 |
| 20260901155202 | 18 | 239 | 1.6 | 4.8 | 0.00 | 0.25 | 0.18 | 90 | 1013.9 |
| 20260901154654 | 18 | 283 | 1.6 | 9.7 | 0.00 | 0.25 | 0.18 | 91 | 1013.8 |
| 20260901154125 | 18 | 245 | 3.2 | 9.7 | 0.00 | 0.25 | 0.18 | 90 | 1013.8 |
| 20260901153623 | 18 | 235 | 3.2 | 9.7 | 0.00 | 0.25 | 0.18 | 91 | 1013.8 |
| 20260901153054 | 19 | 252 | 1.6 | 9.7 | 0.00 | 0.25 | 0.18 | 90 | 1013.8 |
| 20260901152800 | 19 | 139 | 3.2 | 8.0 | 0.00 | 0.25 | 0.18 | 89 | 1013.7 |
| 20260901152013 | 19 | 211 | 4.8 | 14.5 | 0.00 | 0.25 | 0.18 | 87 | 1013.9 |
| 20260901151513 | 19 | 108 | 6.4 | 16.1 | 0.00 | 0.25 | 0.18 | 86 | 1013.9 |
| 20260901150945 | 20 | 172 | 6.4 | 16.1 | 0.00 | 0.25 | 0.18 | 87 | 1013.8 |
| 20260901150445 | 20 | 177 | 3.2 | 16.1 | 0.00 | 0.25 | 0.18 | 88 | 1013.8 |
| 20260901145944 | 19 | 91 | 3.2 | 12.9 | 0.00 | 0.25 | 0.18 | 89 | 1013.8 |
| 20260901145444 | 19 | 155 | 3.2 | 12.9 | 0.00 | 0.25 | 0.18 | 89 | 1013.7 |
| 20260901144918 | 19 | 182 | 3.2 | 12.9 | 0.00 | 0.25 | 0.18 | 89 | 1013.7 |
| 20260901144353 | 19 | 254 | 4.8 | 8.0 | 0.00 | 0.25 | 0.18 | 90 | 1013.8 |
| 20260901143850 | 19 | 235 | 1.6 | 14.5 | 0.00 | 0.25 | 0.18 | 90 | 1013.8 |
| 20260901143322 | 19 | 234 | 0.0 | 4.8 | 0.00 | 0.25 | 0.18 | 90 | 1013.7 |
| 20260901143026 | 19 | 152 | 0.0 | 6.4 | 0.00 | 0.25 | 0.18 | 90 | 1013.6 |
| 20260901142246 | 19 | 124 | 1.6 | 6.4 | 0.00 | 0.25 | 0.18 | 90 | 1013.7 |
| 20260901141723 | 19 | 172 | 3.2 | 8.0 | 0.00 | 0.25 | 0.18 | 89 | 1013.7 |
| 20260901141202 | 19 | 240 | 1.6 | 8.0 | 0.00 | 0.25 | 0.18 | 91 | 1013.8 |
| 20260901140654 | 19 | 270 | 1.6 | 6.4 | 0.00 | 0.25 | 0.18 | 92 | 1013.6 |
| 20260901140156 | 18 | 130 | 0.0 | 9.7 | 0.00 | 0.25 | 0.18 | 93 | 1013.7 |
| 20260901135628 | 18 | 274 | 0.0 | 6.4 | 0.00 | 0.25 | 0.18 | 93 | 1013.6 |
| 20260901135353 | 18 | 162 | 1.6 | 6.4 | 0.10 | 0.25 | 0.18 | 94 | 1013.6 |
| 20260901134601 | 18 | 253 | 3.2 | 6.4 | 0.13 | 0.25 | 0.18 | 93 | 1013.5 |
| 20260901134040 | 18 | 230 | 1.6 | 9.7 | 0.13 | 0.25 | 0.18 | 93 | 1013.7 |
| 20260901133529 | 18 | 242 | 1.6 | 9.7 | 0.13 | 0.25 | 0.18 | 93 | 1013.6 |
| 20260901133028 | 18 | 222 | 1.6 | 8.0 | 0.13 | 0.25 | 0.18 | 94 | 1013.5 |
| 20260901132527 | 18 | 245 | 0.0 | 6.4 | 0.13 | 0.25 | 0.18 | 96 | 1013.5 |
| 20260901132004 | 18 | 282 | 1.6 | 6.4 | 0.13 | 0.25 | 0.18 | 96 | 1013.6 |
| 20260901131443 | 18 | 285 | 0.0 | 6.4 | 0.13 | 0.25 | 0.18 | 96 | 1013.6 |
| 20260901130914 | 18 | 345 | 0.0 | 3.2 | 0.13 | 0.25 | 0.18 | 97 | 1013.5 |
| 20260901130355 | 18 | 272 | 0.0 | 3.2 | 0.13 | 0.25 | 0.18 | 97 | 1013.6 |
| 20260901125826 | 17 | 177 | 1.6 | 8.0 | 0.13 | 0.25 | 0.18 | 96 | 1013.6 |
| 20260901125323 | 17 | 114 | 1.6 | 8.0 | 0.10 | 0.23 | 0.15 | 96 | 1013.6 |
| 20260901124823 | 17 | 163 | 3.2 | 12.9 | 0.00 | 0.13 | 0.05 | 97 | 1013.5 |
| 20260901124323 | 17 | 235 | 3.2 | 12.9 | 0.00 | 0.13 | 0.05 | 98 | 1013.4 |
| 20260901123756 | 17 | 117 | 1.6 | 8.0 | 0.00 | 0.13 | 0.05 | 98 | 1013.4 |
| 20260901123235 | 17 | 246 | 1.6 | 9.7 | 0.00 | 0.13 | 0.05 | 98 | 1013.3 |
| 20260901122706 | 17 | 213 | 3.2 | 12.9 | 0.00 | 0.13 | 0.05 | 98 | 1013.3 |
| 20260901122201 | 17 | 191 | 4.8 | 12.9 | 0.00 | 0.13 | 0.05 | 98 | 1013.3 |
| 20260901121642 | 17 | 162 | 3.2 | 11.3 | 0.00 | 0.13 | 0.05 | 99 | 1013.1 |
| 20260901121114 | 17 | 202 | 3.2 | 9.7 | 0.00 | 0.13 | 0.05 | 99 | 1013.1 |
| 20260901120612 | 17 | 235 | 3.2 | 11.3 | 0.00 | 0.13 | 0.05 | 99 | 1013.1 |
| 20260901120113 | 17 | 251 | 1.6 | 11.3 | 0.00 | 0.13 | 0.05 | 98 | 1013.1 |
| 20260901115840 | 17 | 133 | 1.6 | 8.0 | 0.00 | 0.13 | 0.05 | 99 | 1013.1 |
| 20260901115340 | 17 | 245 | 1.6 | 8.0 | 0.00 | 0.13 | 0.05 | 99 | 1012.9 |
| 20260901114607 | 16 | 187 | 1.6 | 6.4 | 0.00 | 0.13 | 0.05 | 99 | 1013.0 |
| 20260901114315 | 16 | 247 | 0.0 | 4.8 | 0.03 | 0.13 | 0.05 | 99 | 1012.8 |
| 20260901113523 | 16 | 196 | 0.0 | 4.8 | 0.03 | 0.13 | 0.05 | 99 | 1012.9 |
| 20260901113254 | 16 | 213 | 0.0 | 0.0 | 0.03 | 0.13 | 0.05 | 98 | 1012.8 |
| 20260901112731 | 16 | 259 | 3.2 | 12.9 | 0.03 | 0.13 | 0.05 | 98 | 1012.9 |
| 20260901111934 | 16 | 270 | 3.2 | 8.0 | 0.03 | 0.13 | 0.05 | 98 | 1012.8 |
| 20260901111429 | 16 | 252 | 1.6 | 8.0 | 0.03 | 0.13 | 0.05 | 99 | 1012.5 |
| 20260901110906 | 16 | 224 | 0.0 | 4.8 | 0.03 | 0.13 | 0.05 | 98 | 1012.5 |
| 20260901110344 | 16 | 233 | 1.6 | 4.8 | 0.03 | 0.13 | 0.05 | 98 | 1012.4 |
| 20260901105832 | 16 | 229 | 1.6 | 6.4 | 0.03 | 0.13 | 0.05 | 98 | 1012.3 |
| 20260901105547 | 16 | 224 | 1.6 | 6.4 | 0.03 | 0.13 | 0.05 | 98 | 1012.2 |
| 20260901105432 | 16 | 255 | 3.2 | 6.4 | 0.03 | 0.13 | 0.05 | 99 | 1012.1 |
| 20260901104315 | 16 | 259 | 3.2 | 6.4 | 0.00 | 0.10 | 0.03 | 99 | 1012.0 |
| 20260901103815 | 16 | 264 | 1.6 | 6.4 | 0.00 | 0.10 | 0.03 | 99 | 1011.8 |
| 20260901103313 | 16 | 239 | 1.6 | 6.4 | 0.00 | 0.10 | 0.03 | 99 | 1011.8 |
| 20260901103037 | 16 | 284 | 0.0 | 1.6 | 0.00 | 0.10 | 0.03 | 98 | 1011.5 |
| 20260901102244 | 16 | 284 | 0.0 | 1.6 | 0.00 | 0.10 | 0.03 | 99 | 1011.4 |
| 20260901101744 | 16 | 284 | 0.0 | 1.6 | 0.00 | 0.10 | 0.03 | 99 | 1011.5 |
| 20260901101240 | 16 | 284 | 0.0 | 1.6 | 0.00 | 0.10 | 0.03 | 99 | 1011.2 |
| 20260901100725 | 16 | 284 | 0.0 | 1.6 | 0.00 | 0.10 | 0.03 | 99 | 1011.2 |
| 20260901100718 | 16 | 284 | 0.0 | 1.6 | 0.00 | 0.10 | 0.03 | 99 | 1011.2 |
| 20260901095928 | 16 | 268 | 0.0 | 0.0 | 0.00 | 0.10 | 0.03 | 98 | 1011.2 |
| 20260901095156 | 16 | 268 | 0.0 | 0.0 | 0.00 | 0.10 | 0.03 | 98 | 1011.1 |
| 20260901094648 | 16 | 268 | 0.0 | 1.6 | 0.00 | 0.10 | 0.03 | 98 | 1011.1 |
| 20260901094640 | 16 | 268 | 0.0 | 0.0 | 0.00 | 0.10 | 0.03 | 98 | 1011.1 |
| 20260901093901 | 16 | 268 | 0.0 | 1.6 | 0.00 | 0.10 | 0.03 | 98 | 1011.2 |
| 20260901093101 | 16 | 268 | 0.0 | 3.2 | 0.00 | 0.10 | 0.03 | 98 | 1011.1 |
| 20260901092533 | 16 | 279 | 1.6 | 3.2 | 0.00 | 0.10 | 0.03 | 98 | 1011.0 |
| 20260901092033 | 16 | 264 | 0.0 | 3.2 | 0.00 | 0.10 | 0.03 | 98 | 1010.9 |
| 20260901091526 | 16 | 239 | 0.0 | 3.2 | 0.00 | 0.10 | 0.03 | 98 | 1010.7 |
| 20260901091015 | 16 | 239 | 0.0 | 3.2 | 0.00 | 0.10 | 0.03 | 98 | 1010.7 |
| 20260901090451 | 16 | 261 | 0.0 | 1.6 | 0.03 | 0.10 | 0.03 | 98 | 1010.6 |
| 20260901085951 | 16 | 261 | 0.0 | 1.6 | 0.03 | 0.10 | 0.03 | 98 | 1010.5 |
| 20260901085422 | 16 | 261 | 0.0 | 1.6 | 0.03 | 0.10 | 0.03 | 98 | 1010.4 |
| 20260901085145 | 16 | 261 | 0.0 | 3.2 | 0.03 | 0.10 | 0.03 | 98 | 1010.5 |
| 20260901084415 | 16 | 207 | 0.0 | 4.8 | 0.03 | 0.10 | 0.03 | 98 | 1010.6 |
| 20260901083856 | 16 | 255 | 1.6 | 4.8 | 0.03 | 0.10 | 0.03 | 98 | 1010.4 |
| 20260901083354 | 16 | 237 | 1.6 | 4.8 | 0.03 | 0.10 | 0.03 | 98 | 1010.5 |
| 20260901082857 | 16 | 260 | 1.6 | 4.8 | 0.03 | 0.10 | 0.03 | 98 | 1010.4 |
| 20260901082356 | 16 | 257 | 0.0 | 3.2 | 0.03 | 0.10 | 0.03 | 98 | 1010.4 |
| 20260901081851 | 16 | 244 | 0.0 | 0.0 | 0.03 | 0.10 | 0.03 | 98 | 1010.4 |
| 20260901081353 | 16 | 261 | 0.0 | 0.0 | 0.03 | 0.10 | 0.03 | 98 | 1010.1 |
| 20260901081109 | 16 | 246 | 0.0 | 0.0 | 0.03 | 0.10 | 0.03 | 98 | 1010.1 |
| 20260901080324 | 16 | 270 | 0.0 | 0.0 | 0.00 | 0.08 | 0.00 | 98 | 1010.1 |
| 20260901075818 | 16 | 262 | 0.0 | 0.0 | 0.00 | 0.08 | 0.00 | 98 | 1010.1 |
| 20260901075320 | 16 | 262 | 0.0 | 0.0 | 0.00 | 0.08 | 0.00 | 98 | 1010.0 |
| 20260901074806 | 16 | 258 | 0.0 | 0.0 | 0.00 | 0.08 | 0.00 | 98 | 1009.8 |
| 20260901074636 | 16 | 256 | 0.0 | 0.0 | 0.00 | 0.08 | 0.00 | 98 | 1009.6 |
| 20260901074530 | 16 | 251 | 0.0 | 0.0 | 0.00 | 0.08 | 0.00 | 98 | 1009.4 |
| 20260901073246 | 16 | 305 | 0.0 | 0.0 | 0.00 | 0.08 | 0.00 | 98 | 1009.3 |
| 20260901072747 | 16 | 305 | 0.0 | 0.0 | 0.00 | 0.08 | 0.00 | 98 | 1009.2 |
| 20260901072245 | 16 | 305 | 0.0 | 0.0 | 0.00 | 0.08 | 0.00 | 98 | 1009.0 |
| 20260901072014 | 16 | 305 | 0.0 | 0.0 | 0.00 | 0.08 | 0.00 | 98 | 1009.0 |
| 20260901071226 | 16 | 305 | 0.0 | 0.0 | 0.00 | 0.08 | 0.00 | 98 | 1009.2 |
| 20260901070725 | 16 | 305 | 0.0 | 0.0 | 0.00 | 0.08 | 0.00 | 98 | 1009.3 |
| 20260901070219 | 16 | 305 | 0.0 | 0.0 | 0.00 | 0.08 | 0.00 | 98 | 1009.3 |
| 20260901065719 | 16 | 305 | 0.0 | 0.0 | 0.00 | 0.08 | 0.00 | 98 | 1009.5 |
| 20260901065451 | 16 | 305 | 0.0 | 0.0 | 0.00 | 0.08 | 0.00 | 98 | 1009.5 |
| 20260901064716 | 16 | 249 | 0.0 | 0.0 | 0.00 | 0.08 | 0.00 | 98 | 1009.5 |
| 20260901064212 | 16 | 249 | 0.0 | 0.0 | 0.00 | 0.08 | 0.00 | 98 | 1009.6 |
| 20260901063711 | 16 | 228 | 0.0 | 0.0 | 0.00 | 0.08 | 0.00 | 98 | 1009.6 |
| 20260901063435 | 16 | 208 | 0.0 | 0.0 | 0.00 | 0.08 | 0.00 | 98 | 1009.6 |
| 20260901062649 | 16 | 197 | 0.0 | 0.0 | 0.00 | 0.08 | 0.00 | 98 | 1009.7 |
| 20260901062354 | 16 | 197 | 0.0 | 0.0 | 0.00 | 0.08 | 0.00 | 98 | 1009.7 |
| 20260901061616 | 16 | 187 | 0.0 | 0.0 | 0.00 | 0.08 | 0.00 | 98 | 1009.7 |
| 20260901061115 | 16 | 187 | 0.0 | 1.6 | 0.00 | 0.08 | 0.00 | 98 | 1009.7 |
| 20260901060611 | 16 | 106 | 0.0 | 1.6 | 0.00 | 0.08 | 0.00 | 98 | 1009.6 |
| 20260901060046 | 16 | 99 | 0.0 | 3.2 | 0.00 | 0.08 | 0.00 | 98 | 1009.5 |
| 20260901055546 | 16 | 106 | 0.0 | 4.8 | 0.00 | 0.08 | 0.00 | 98 | 1009.7 |
| 20260901055034 | 16 | 101 | 0.0 | 4.8 | 0.00 | 0.08 | 0.00 | 98 | 1009.7 |
| 20260901055026 | 16 | 139 | 0.0 | 4.8 | 0.00 | 0.08 | 0.00 | 98 | 1009.8 |
| 20260901054007 | 16 | 143 | 0.0 | 4.8 | 0.00 | 0.08 | 0.00 | 98 | 1009.7 |
| 20260901053504 | 16 | 177 | 0.0 | 1.6 | 0.00 | 0.08 | 0.00 | 98 | 1009.8 |
| 20260901053004 | 16 | 171 | 0.0 | 1.6 | 0.00 | 0.08 | 0.00 | 98 | 1009.9 |
| 20260901052458 | 16 | 118 | 0.0 | 1.6 | 0.00 | 0.08 | 0.00 | 98 | 1010.0 |
| 20260901051957 | 16 | 112 | 0.0 | 0.0 | 0.00 | 0.08 | 0.00 | 98 | 1010.1 |
| 20260901051431 | 16 | 158 | 0.0 | 0.0 | 0.00 | 0.08 | 0.00 | 98 | 1010.1 |
| 20260901050915 | 17 | 246 | 0.0 | 0.0 | 0.00 | 0.08 | 0.00 | 98 | 1010.2 |
| 20260901050402 | 17 | 246 | 0.0 | 0.0 | 0.00 | 0.08 | 0.00 | 98 | 1010.5 |
| 20260901045848 | 17 | 246 | 0.0 | 0.0 | 0.00 | 0.08 | 0.00 | 98 | 1010.3 |
| 20260901045347 | 17 | 246 | 0.0 | 0.0 | 0.00 | 0.08 | 0.00 | 98 | 1010.3 |
| 20260901044817 | 17 | 246 | 0.0 | 0.0 | 0.00 | 0.08 | 0.00 | 98 | 1010.4 |
| 20260901044315 | 17 | 246 | 0.0 | 0.0 | 0.00 | 0.08 | 0.00 | 98 | 1010.6 |
| 20260901043816 | 17 | 246 | 0.0 | 0.0 | 0.00 | 0.08 | 0.00 | 98 | 1010.8 |
| 20260901043315 | 17 | 246 | 1.6 | 6.4 | 0.00 | 0.08 | 0.00 | 98 | 1010.8 |
| 20260901042802 | 17 | 246 | 1.6 | 6.4 | 0.00 | 0.08 | 0.00 | 98 | 1010.9 |
| 20260901042519 | 17 | 245 | 1.6 | 6.4 | 0.00 | 0.08 | 0.00 | 98 | 1011.0 |
| 20260901041749 | 17 | 258 | 1.6 | 6.4 | 0.00 | 0.08 | 0.00 | 98 | 1011.1 |
| 20260901041251 | 17 | 288 | 1.6 | 4.8 | 0.00 | 0.08 | 0.00 | 98 | 1011.0 |
| 20260901041244 | 17 | 294 | 1.6 | 4.8 | 0.00 | 0.08 | 0.00 | 98 | 1011.0 |
| 20260901040248 | 17 | 258 | 0.0 | 1.6 | 0.00 | 0.08 | 0.00 | 98 | 1011.0 |
| 20260901040241 | 17 | 288 | 0.0 | 4.8 | 0.00 | 0.08 | 0.00 | 98 | 1011.1 |
| 20260901035459 | 17 | 270 | 0.0 | 3.2 | 0.00 | 0.08 | 0.00 | 98 | 1011.0 |
| 20260901034728 | 17 | 257 | 0.0 | 3.2 | 0.00 | 0.08 | 0.00 | 98 | 1010.8 |
| 20260901034458 | 17 | 295 | 0.0 | 3.2 | 0.00 | 0.08 | 0.00 | 97 | 1010.8 |
| 20260901033716 | 17 | 267 | 1.6 | 4.8 | 0.00 | 0.08 | 0.00 | 97 | 1010.6 |
| 20260901033427 | 17 | 267 | 1.6 | 4.8 | 0.00 | 0.08 | 0.00 | 97 | 1010.5 |
| 20260901032658 | 17 | 260 | 1.6 | 6.4 | 0.00 | 0.08 | 0.00 | 97 | 1010.6 |
| 20260901032147 | 17 | 231 | 1.6 | 4.8 | 0.00 | 0.08 | 0.00 | 97 | 1010.7 |
| 20260901031643 | 17 | 296 | 1.6 | 9.7 | 0.00 | 0.08 | 0.00 | 97 | 1010.8 |
| 20260901031132 | 17 | 285 | 1.6 | 8.0 | 0.00 | 0.08 | 0.00 | 97 | 1010.9 |
| 20260901030838 | 17 | 260 | 3.2 | 9.7 | 0.00 | 0.08 | 0.00 | 97 | 1010.6 |
| 20260901030042 | 17 | 274 | 3.2 | 9.7 | 0.00 | 0.08 | 0.00 | 97 | 1010.7 |
| 20260901025536 | 17 | 271 | 0.0 | 3.2 | 0.00 | 0.08 | 0.08 | 97 | 1010.5 |
| 20260901025008 | 17 | 276 | 0.0 | 1.6 | 0.00 | 0.08 | 0.08 | 97 | 1010.1 |
| 20260901024459 | 17 | 276 | 0.0 | 1.6 | 0.00 | 0.08 | 0.08 | 97 | 1010.4 |
| 20260901023949 | 17 | 276 | 0.0 | 3.2 | 0.00 | 0.08 | 0.08 | 97 | 1010.2 |
| 20260901023436 | 17 | 276 | 0.0 | 1.6 | 0.00 | 0.08 | 0.08 | 97 | 1010.2 |
| 20260901022910 | 17 | 187 | 0.0 | 6.4 | 0.00 | 0.08 | 0.08 | 97 | 1010.0 |
| 20260901022408 | 17 | 213 | 1.6 | 6.4 | 0.00 | 0.08 | 0.08 | 97 | 1009.7 |
| 20260901021857 | 17 | 221 | 1.6 | 6.4 | 0.00 | 0.08 | 0.08 | 97 | 1009.7 |
| 20260901021355 | 17 | 210 | 1.6 | 4.8 | 0.00 | 0.08 | 0.08 | 97 | 1009.5 |
| 20260901020853 | 17 | 68 | 1.6 | 4.8 | 0.00 | 0.08 | 0.08 | 97 | 1009.8 |
| 20260901020350 | 17 | 208 | 1.6 | 4.8 | 0.00 | 0.08 | 0.08 | 97 | 1009.5 |
| 20260901015820 | 17 | 124 | 1.6 | 4.8 | 0.00 | 0.08 | 0.08 | 97 | 1009.9 |
| 20260901015310 | 17 | 177 | 0.0 | 3.2 | 0.00 | 0.08 | 0.08 | 97 | 1010.0 |
| 20260901014745 | 17 | 105 | 0.0 | 0.0 | 0.00 | 0.08 | 0.08 | 97 | 1010.6 |
| 20260901014243 | 17 | 227 | 0.0 | 0.0 | 0.00 | 0.08 | 0.08 | 97 | 1010.9 |
| 20260901013713 | 17 | 229 | 0.0 | 0.0 | 0.00 | 0.08 | 0.08 | 97 | 1010.9 |
| 20260901013421 | 17 | 216 | 0.0 | 0.0 | 0.00 | 0.08 | 0.08 | 97 | 1011.1 |
| 20260901013143 | 17 | 197 | 0.0 | 0.0 | 0.00 | 0.08 | 0.08 | 97 | 1011.1 |
| 20260901012137 | 17 | 268 | 0.0 | 0.0 | 0.00 | 0.08 | 0.08 | 97 | 1011.3 |
| 20260901011636 | 17 | 251 | 0.0 | 0.0 | 0.00 | 0.08 | 0.08 | 98 | 1011.1 |
| 20260901011109 | 17 | 182 | 0.0 | 0.0 | 0.00 | 0.08 | 0.08 | 98 | 1010.9 |
| 20260901010558 | 17 | 244 | 0.0 | 0.0 | 0.00 | 0.08 | 0.08 | 98 | 1011.2 |
| 20260901010046 | 17 | 245 | 0.0 | 0.0 | 0.00 | 0.08 | 0.08 | 98 | 1011.0 |
| 20260901005548 | 17 | 266 | 1.6 | 3.2 | 0.00 | 0.08 | 0.08 | 98 | 1011.2 |
| 20260901005019 | 17 | 246 | 1.6 | 6.4 | 0.00 | 0.08 | 0.08 | 98 | 1011.1 |
| 20260901004515 | 17 | 275 | 0.0 | 4.8 | 0.00 | 0.08 | 0.08 | 98 | 1011.1 |
| 20260901004012 | 17 | 271 | 0.0 | 3.2 | 0.00 | 0.08 | 0.08 | 98 | 1011.0 |
| 20260901003444 | 17 | 271 | 0.0 | 3.2 | 0.00 | 0.08 | 0.08 | 98 | 1010.9 |